Find Starlink 37345

NORAD ID: 69156 Int'l Des: 2026-111 Owner: SPXS Country: US Constellation: starlink operational
LEOCIRCULAR

現在のビュー

3D地球を読み込み中...

About Starlink 37345

Starlink 37345 (NORAD 69156) is a starlink constellation satellite (v2 mini) launched May 21, 2026 by SPXS of US. It operates in LEO, CIRCULAR orbit with a mass of 575.00 kg.

次回通過

Passes for default location (London). Set your location on the main map for personalized predictions.

高度履歴

Loading altitude history...

軌道要素

1 69156U 26111J 26234.88671396 .00019518 00000-0 58725-3 0 9997
2 69156 53.1564 199.6387 0001763 72.4678 287.6517 15.34402365 14506
Epoch: Aug 22, 2026 • Age: 27 hours

現在のステータス

高度 467.6 km
遠地点 / 近地点 N/A
速度 7.64 km/s
衛星直下点 51.04°N, 29.69°W
打ち上げ日 May 21, 2026
運用期間 0.2 years
タイプ internet

技術仕様

分類 Payload
質量 575.00 kg
乾燥質量 530.00 kg
総質量 575.00 kg
長さ 0.30 m
直径 4.10 m
スパン 29.00 m
形状 Box + pan
製造者 SPXS
バスタイプ Starlink V2MO
フェーズステータス In Orbit
所有者/国 SPXS/US

Most Searched